Regional Weather Roundup
Issued by NWS New Orleans/Baton Rouge, LA

Home | Current Version | Previous Version | Text Only | Print | Product List | Glossary On
Versions: 1 2 3 4 5 6 7 8 9 10 11 12 13 14 15 16 17 18 19 20 21 22 23 24 25 26 27 28 29 30 31 32 33 34 35 36 37 38 39 40 41 42 43 44 45 46 47 48 49 50
000
ASUS44 KLIX 270310
RWRLIX
NEW ORLEANS REGIONAL WEATHER ROUNDUP
NATIONAL WEATHER SERVICE NEW ORLEANS LA
900 PM CST FRI DEC 26 2014

NOTE: "FAIR" INDICATES FEW OR NO CLOUDS BELOW 12,000 FEET WITH NO
      SIGNIFICANT WEATHER AND/OR OBSTRUCTIONS TO VISIBILITY.
      SKY/WX - SKY CONDITION AND SIGNIFICANT WEATHER.
      TMP - AIR TEMPERATURE.     DP    - DEWPOINT TEMPERATURE.
      RH  - RELATIVE HUMIDITY.   PRES  - PRESSURE.
      HI  - HEAT INDEX.          WCI   - WIND CHILL INDEX.

*  THESE STATIONS ARE NOT NWS OR FAA STATIONS AND ARE NOT UNDER
   NWS QUALITY CONTROL.

LAZ038-040-048-061>063-065>067-069-270400-
SOUTHEAST LOUISIANA

CITY           SKY/WX    TMP DP  RH WIND       PRES   REMARKS
N.O. AUDUBON     N/A     65  59  81 MISG        N/A
N.O. INTL ARPT CLOUDY    63  56  78 E10       30.13F
N.O. LAKEFRONT CLOUDY    63  58  83 E15       30.15S
N.O. DOWNTOWN* CLOUDY    63  55  77 E14       30.15S
SLIDELL        CLOUDY    62  56  80 E12G24    30.16S
BATON ROUGE    LGT RAIN  59  55  87 E10       30.13S
BOOTHVILLE     PTCLDY    64  59  83 E9        30.16F
BELLE CHASSE   CLOUDY    62  57  83 E12       30.13F
BOGALUSA*        N/A     64  53  68 SE7       30.17F
GALLIANO*      MOCLDY    65  59  81 MISG      30.13S
NEW ROADS*     DRIZZLE   58  56  93 E6        30.14R
GONZALES*      CLOUDY    61  57  86 E5        30.13S
HAMMOND*       NOT AVBL
HOUMA*         CLOUDY    64  58  83 E10       30.13R
PORT FOURCHON* MOCLDY    66  63  88 E14G21    30.15S

$$

MSZ070-080>082-270400-
SOUTHERN MISSISSIPPI

CITY           SKY/WX    TMP DP  RH WIND       PRES   REMARKS
MCCOMB         CLOUDY    60  53  77 E5        30.15S
GULFPORT       CLOUDY    61  53  75 E17       30.18F
BILOXI         CLOUDY    61  53  73 E10G17    30.19S
PASCAGOULA     CLOUDY    60  49  66 E12       30.20F

$$

COASTAL OBSERVATIONS
LAKE AND NEARSHORE STATIONS

STATION/POSITION TIME  TEMP    WIND        PRES    WAVE
                       AIR SEA DIR/SP/G            HT/PER
                 (UTC) (F)     (DEG/KT/KT) (MB)    (FT/S)
PASCAGOULA       0300   61      80/ 17/ 25 1022.4
WAVELAND YACHT   0300          100/ 17/ 20 1020.9
GRAND ISLE       0300   65 63  110/ 10/ 15 1020.6
SOUTHWEST PASS   0300   67                 1021.0
NEW CANAL        0300           80/  5/ 12 1021.1
SHELL BEACH      0300          100/ 16/ 18 1020.7

OFFSHORE STATIONS

STATION/POSITION TIME  TEMP    WIND        PRES    WAVE
                       AIR SEA DIR/SP/G            HT/PER
                 (UTC) (F)     (DEG/KT/KT) (MB)    (FT/S)
64 S DAUPHIN ISL 0300   70 74  100/ 19/ 23 1021.6    3/ 4

$$




USA.gov is the U.S. government's official web portal to all federal, state and local government web resources and services.